TimeMDT,TemperatureF,Dew PointF,Humidity,Sea Level PressureIn,VisibilityMPH,Wind Direction,Wind SpeedMPH,Gust SpeedMPH,PrecipitationIn,Events,Conditions,WindDirDegrees,DateUTC
12:15 AM,55.4,8.6,15,29.93,10.0,Calm,Calm,-,N/A,,Clear,0,2013-05-01 06:15:00
12:35 AM,57.2,10.4,16,29.94,10.0,ESE,6.9,-,N/A,,Clear,120,2013-05-01 06:35:00
12:55 AM,55.4,8.6,15,29.95,10.0,South,5.8,-,N/A,,Clear,170,2013-05-01 06:55:00
1:15 AM,55.4,10.4,17,29.96,10.0,South,4.6,-,N/A,,Clear,170,2013-05-01 07:15:00
1:35 AM,51.8,8.6,18,29.96,10.0,SSE,6.9,-,N/A,,Clear,160,2013-05-01 07:35:00
1:55 AM,51.8,10.4,19,29.97,10.0,SSE,5.8,-,N/A,,Clear,150,2013-05-01 07:55:00
2:15 AM,50.0,8.6,19,29.97,10.0,SSE,8.1,-,N/A,,Clear,150,2013-05-01 08:15:00
2:35 AM,51.8,10.4,19,29.97,10.0,SSE,6.9,-,N/A,,Clear,150,2013-05-01 08:35:00
2:55 AM,51.8,10.4,19,29.97,10.0,SSW,6.9,-,N/A,,Clear,210,2013-05-01 08:55:00
3:15 AM,50.0,10.4,20,29.98,10.0,SW,13.8,-,N/A,,Clear,220,2013-05-01 09:15:00
3:35 AM,51.8,12.2,21,29.98,10.0,SSW,10.4,-,N/A,,Clear,210,2013-05-01 09:35:00
4:15 AM,51.8,12.2,21,30.00,10.0,SSW,8.1,-,N/A,,Clear,210,2013-05-01 10:15:00
4:35 AM,51.8,12.2,21,30.00,10.0,SW,5.8,-,N/A,,Clear,220,2013-05-01 10:35:00
4:55 AM,51.8,10.4,19,30.00,10.0,SSW,4.6,-,N/A,,Clear,200,2013-05-01 10:55:00
5:15 AM,48.2,10.4,22,30.01,10.0,South,4.6,-,N/A,,Clear,190,2013-05-01 11:15:00
5:35 AM,46.4,10.4,23,30.02,10.0,Calm,Calm,-,N/A,,Clear,0,2013-05-01 11:35:00
5:55 AM,46.4,10.4,23,30.03,10.0,Calm,Calm,-,N/A,,Clear,0,2013-05-01 11:55:00
6:15 AM,46.4,12.2,25,30.04,10.0,Calm,Calm,-,N/A,,Clear,0,2013-05-01 12:15:00
6:35 AM,41.0,8.6,26,30.05,10.0,East,3.5,-,N/A,,Clear,80,2013-05-01 12:35:00
7:15 AM,53.6,15.8,22,30.07,10.0,SW,4.6,-,N/A,,Clear,220,2013-05-01 13:15:00
7:35 AM,53.6,14.0,21,30.07,10.0,SW,8.1,-,N/A,,Clear,230,2013-05-01 13:35:00
7:55 AM,57.2,17.6,21,30.06,10.0,SW,11.5,-,N/A,,Partly Cloudy,220,2013-05-01 13:55:00
8:15 AM,59.0,15.8,19,30.06,10.0,SW,11.5,-,N/A,,Clear,230,2013-05-01 14:15:00
8:35 AM,60.8,15.8,17,30.06,10.0,West,12.7,24.2,N/A,,Clear,260,2013-05-01 14:35:00
9:15 AM,62.6,17.6,18,30.06,10.0,WSW,16.1,24.2,N/A,,Clear,250,2013-05-01 15:15:00
9:35 AM,62.6,17.6,18,30.06,10.0,SSW,6.9,24.2,N/A,,Clear,210,2013-05-01 15:35:00
9:55 AM,64.4,17.6,16,30.06,10.0,West,9.2,18.4,N/A,,Clear,280,2013-05-01 15:55:00
10:15 AM,66.2,17.6,15,30.06,10.0,West,12.7,19.6,N/A,,Clear,270,2013-05-01 16:15:00
10:35 AM,64.4,17.6,16,30.05,10.0,SSW,17.3,21.9,N/A,,Clear,210,2013-05-01 16:35:00
10:55 AM,66.2,17.6,15,30.06,10.0,West,11.5,24.2,N/A,,Scattered Clouds,270,2013-05-01 16:55:00
11:15 AM,68.0,19.4,16,30.06,10.0,WSW,13.8,26.5,N/A,,Mostly Cloudy,240,2013-05-01 17:15:00
11:35 AM,68.0,19.4,16,30.05,10.0,SW,16.1,25.3,N/A,,Clear,220,2013-05-01 17:35:00
11:55 AM,68.0,19.4,16,30.05,10.0,West,17.3,27.6,N/A,,Scattered Clouds,280,2013-05-01 17:55:00
12:15 PM,71.6,19.4,14,30.05,10.0,West,24.2,31.1,N/A,,Partly Cloudy,260,2013-05-01 18:15:00
12:35 PM,71.6,21.2,15,30.04,10.0,West,18.4,38.0,N/A,,Clear,260,2013-05-01 18:35:00
12:55 PM,71.6,21.2,15,30.03,10.0,West,27.6,38.0,N/A,,Clear,270,2013-05-01 18:55:00
1:15 PM,71.6,21.2,15,30.04,10.0,West,24.2,38.0,N/A,,Clear,260,2013-05-01 19:15:00
1:35 PM,73.4,21.2,14,30.04,10.0,West,28.8,35.7,N/A,,Clear,270,2013-05-01 19:35:00
1:55 PM,69.8,21.2,16,30.04,10.0,West,23.0,31.1,N/A,,Partly Cloudy,270,2013-05-01 19:55:00
2:15 PM,71.6,21.2,15,30.04,10.0,West,27.6,34.5,N/A,,Scattered Clouds,270,2013-05-01 20:15:00
2:35 PM,69.8,19.4,15,30.04,10.0,West,28.8,40.3,N/A,,Mostly Cloudy,270,2013-05-01 20:35:00
3:15 PM,71.6,21.2,15,30.04,10.0,West,29.9,35.7,N/A,,Scattered Clouds,260,2013-05-01 21:15:00
3:35 PM,69.8,21.2,16,30.05,10.0,WNW,24.2,33.4,N/A,,Partly Cloudy,290,2013-05-01 21:35:00
4:15 PM,69.8,21.2,16,30.04,10.0,West,27.6,34.5,N/A,,Mostly Cloudy,270,2013-05-01 22:15:00
4:35 PM,66.2,21.2,18,30.04,10.0,West,19.6,32.2,N/A,,Scattered Clouds,260,2013-05-01 22:35:00
4:55 PM,68.0,21.2,17,30.04,8.0,West,31.1,40.3,N/A,,Scattered Clouds,260,2013-05-01 22:55:00
5:15 PM,68.0,21.2,17,30.04,10.0,West,24.2,38.0,N/A,,Partly Cloudy,260,2013-05-01 23:15:00
5:35 PM,69.8,21.2,16,30.02,10.0,West,29.9,35.7,N/A,,Partly Cloudy,270,2013-05-01 23:35:00
5:55 PM,69.8,21.2,16,30.02,10.0,West,25.3,35.7,N/A,,Clear,270,2013-05-01 23:55:00
6:15 PM,68.0,21.2,17,30.01,10.0,WNW,28.8,33.4,N/A,,Clear,290,2013-05-02 00:15:00
6:35 PM,66.2,19.4,17,30.01,10.0,West,25.3,34.5,N/A,,Clear,280,2013-05-02 00:35:00
6:55 PM,64.4,19.4,18,30.02,10.0,West,23.0,34.5,N/A,,Clear,270,2013-05-02 00:55:00
7:35 PM,55.4,24.8,31,30.07,10.0,ESE,18.4,26.5,N/A,,Clear,110,2013-05-02 01:35:00
7:55 PM,53.6,28.4,38,30.08,9.0,ESE,24.2,33.4,N/A,,Mostly Cloudy,110,2013-05-02 01:55:00
8:35 PM,48.2,28.4,46,30.14,10.0,ESE,24.2,31.1,N/A,,Overcast,120,2013-05-02 02:35:00
8:55 PM,48.2,28.4,46,30.16,10.0,ESE,16.1,26.5,N/A,,Overcast,110,2013-05-02 02:55:00
9:15 PM,46.4,26.6,46,30.18,10.0,ESE,24.2,29.9,N/A,,Overcast,110,2013-05-02 03:15:00
9:35 PM,48.2,19.4,32,30.24,10.0,NNE,17.3,-,N/A,,Overcast,20,2013-05-02 03:35:00
9:55 PM,42.8,12.2,29,30.25,10.0,North,13.8,20.7,N/A,,Overcast,360,2013-05-02 03:55:00
10:15 PM,42.8,12.2,29,30.26,10.0,North,21.9,27.6,N/A,,Overcast,350,2013-05-02 04:15:00
10:35 PM,41.0,12.2,31,30.27,10.0,NNW,24.2,29.9,N/A,,Overcast,330,2013-05-02 04:35:00
10:55 PM,37.4,10.4,33,30.28,10.0,NNW,17.3,26.5,N/A,,Overcast,340,2013-05-02 04:55:00
11:15 PM,37.4,10.4,33,30.31,10.0,NNW,18.4,24.2,N/A,,Overcast,340,2013-05-02 05:15:00
11:35 PM,35.6,10.4,35,30.31,10.0,NNW,16.1,25.3,N/A,,Mostly Cloudy,340,2013-05-02 05:35:00
11:55 PM,33.8,10.4,38,30.33,10.0,NNW,12.7,-,N/A,,Partly Cloudy,330,2013-05-02 05:55:00